Miscellaneous Local Product
Issued by NWS Hastings, NE

Home | Current Version | Previous Version | Graphics & Text | Print | Product List | Glossary On
Versions: 1 2 3 4 5 6 7 8 9 10 11 12 13 14 15 16 17 18 19 20 21 22 23 24 25 26 27 28 29 30 31 32 33 34 35 36 37 38 39 40 41 42 43 44 45 46 47 48 49 50
248
AXUS43 KGID 251302
MISGRI

GID CWA HOURLY WEATHER ROUNDUP
NATIONAL WEATHER SERVICE HASTINGS NE
800 AM CDT WED MAY 25 2016

NOTE: "FAIR" INDICATES FEW OR NO CLOUDS BELOW 12,000 FEET WITH NO
SIGNIFICANT WEATHER AND/OR OBSTRUCTIONS TO VISIBILITY.

...SOUTH CENTRAL NEBRASKA...

CITY           SKY/WX    TMP DP  RH WIND       PRES   REMARKS
GRAND ISLAND   CLOUDY    60  59  96 S12       29.88S
HASTINGS       CLOUDY    59  59 100 SE6       29.90F
KEARNEY        CLOUDY    61  57  88 SE9       29.90F
ORD            MOSUNNY   62  57  83 S8        29.82S
YORK           CLOUDY    61  59  94 W5        29.91F
AURORA         CLOUDY    61  61  99 SE6       29.90F
LEXINGTON      CLOUDY    61  56  81 SE13      29.87S
HOLDREGE       CLOUDY    60  57  88 E9        29.90F
HEBRON         HVY RAIN  61  58  90 NW7       29.94R

...NEBRASKA PANHANDLE...

CITY           SKY/WX    TMP DP  RH WIND       PRES   REMARKS
CHADRON        MOSUNNY   49  32  52 SW6       29.89S
ALLIANCE       CLOUDY    50  49  96 W14       29.92R
SCOTTSBLUFF    MOSUNNY   52  47  83 CALM      29.93S
SIDNEY         FOG       48  48 100 W8        29.96R VSB<1/4

...WESTERN AND NORTH CENTRAL NEBRASKA...

CITY           SKY/WX    TMP DP  RH WIND       PRES   REMARKS
VALENTINE      MOSUNNY   58  53  84 SW7       29.82F
AINSWORTH      CLOUDY    58  56  96 SW8       29.85S
ONEILL         CLOUDY    59  57  95 SE3       29.80S
BROKEN BOW     SUNNY     60  55  83 SW8       29.88R
IMPERIAL       SUNNY     58  52  80 SE5       29.91R
NORTH PLATTE   MOSUNNY   58  55  90 E5        29.88F
MCCOOK         MOSUNNY   62  55  77 SE14G20   29.86F

...EASTERN NEBRASKA...

CITY           SKY/WX    TMP DP  RH WIND       PRES   REMARKS
NORFOLK        LGT RAIN  61  57  87 SE9       29.80F
SO SIOUX CITY  CLOUDY    66  60  81 VRB3      29.85R
TEKAMAH        CLOUDY    64  60  87 SW6       29.87R
COLUMBUS       CLOUDY    61  54  77 E12       29.81F
ALBION         CLOUDY    61  58  92 SE9       29.82F
OMAHA EPPLEY   CLOUDY    66  61  84 NE3       29.89R
MILLARD        CLOUDY    65  61  85 CALM      29.88R
LINCOLN        PTSUNNY   64  59  83 W7        29.90R
NEBRASKA CITY  CLOUDY    64  62  96 W7        29.89R
BEATRICE       LGT RAIN  62  59  92 NW17G23   29.90S
FALLS CITY     RAIN      65  60  84 W10       29.91R

...NORTHERN KANSAS...

CITY           SKY/WX    TMP DP  RH WIND       PRES   REMARKS
GOODLAND       CLOUDY    56  55  97 E15       29.90S
HILL CITY      CLOUDY    61  56  83 NE14      29.87R
NORTON         CLOUDY    61  54  77 NE15      29.88S
PHILLIPSBURG   CLOUDY    63  55  77 NE9       29.88S
SMITH CENTER   CLOUDY    59  55  88 NE9       29.88F
RUSSELL        CLOUDY    64  61  90 N7        29.85R
CONCORDIA      CLOUDY    61  58  90 NW10      29.91R
SALINA         CLOUDY    67  61  81 S13       29.82F
TOPEKA         CLOUDY    66  61  84 NW3       29.86R



USA.gov is the U.S. government's official web portal to all federal, state and local government web resources and services.